STARLINK-34759, 65096

Orbit data source: Space-Track

STARLINK-34759, 65096 is a payload satellite owned by SpaceX/Seattle (US) in LEO that was launched on Mon, 04 Aug 2025 UTC via an FALCON 9 launch vehicle from the Air Force Eastern Test Range (AFETR). Payload-class satellites include a variety of spacecraft equipped with specific instruments for various scientific and technological missions. These include communications satellites like Starlink; space stations such as the ISS; scientific satellites like the Hubble; Earth observation satellites from companies like Planet Labs, Umbra, and HawkEye 360; GPS; miniature CubeSats for education and research; and military/defense satellites.

Loading next visibility...
Identifier
65096, 2025-167U
Orbit
LEO
Country
Flag of USUS
Related business
Manufacturer
SpaceX/Seattle
Mission
Operational Commercial Communications
Bus & Motor
STARLINK V2MO, Unknown motor
Mass
575 kg wet, ~530 kg dry
Launch date (UTC)
2025-08-04 (11 months ago)
Launch vehicle
FALCON 9
Launch site
Air Force Eastern Test Range (AFETR)
Object type
Payload
Rocket body
Debris
Shape & HBR
Box + 2 Pan, 17.7 m
Radar Cross Section
36.964 m², Large (>1 m²)

Expand to show TLE details & history
Last TLE update: 1 day ago

TLE from 1 day ago
0 STARLINK-34759
1 65096U 25167U   26173.83335648 -.00021877  00000-0 -63810-3 0  9994
2 65096  53.1581 253.1671 0001364  87.7300 128.3767 15.34405268  5899
Epoch: 2026-06-22T20:00Z
TLE epoch observation values (Epoch: 2026-06-22T20:00:01.999Z)
Latitude
-28.35151°
Longitude
-114.14811°
Altitude
471.778 km
Speed
7.63 km/s
True Right ascension
06h 27m 29s
True Declination
-28° 12' 07"
Sunlit
Object was in daylight at epoch
Visualization orbit readout
Latitude
Unknown
Longitude
Unknown
Altitude
Unknown
Speed
Unknown
Apparent Right ascension
Unknown
Apparent Declination
Unknown
Sunlit
N/A
Visualization observer readout
Local Sidereal Time
13:51:37
Azimuth
Unknown
Elevation
Unknown
Doppler factor
Unknown
Orbital elements
Apogee altitude
463.878 km
Perigee altitude
462.012 km
Semi-major axis
6,841.082 km
Eccentricity
0.00014
Inclination
53.1581°
RAAN
253.1671°
Arg. of periapsis
87.73°
True anomaly
128.38895°
Mean anomaly
128.3767°
Eccentric anomaly
128.38283°
Mean motion
3.8358 °/min
Orbital period
93.85 mins
BSTAR
-0.0006381
Loading maneuver chart data...
Computing Atmospheric mass density...
Loading historical data...
Loading historical data...
Loading historical data...
Loading historical data...
Loading historical data...
Loading historical data...
Loading historical data...

Documentation

Showing up to 5 results
|